Home   Weather   Irving   Past weeks

Flag for USA Past Weather in Irving, Texas, USA — Yesterday and Last 2 Weeks

Now
76 °F

Broken clouds.


Feels Like: 77 °F
Forecast: 75 / 91 °F
Wind: 5 mph from Southeast

Location: Dallas / Fort Worth International Airport

Current Time: Jun 27, 2017 at 7:18:50 pm

Latest Report: Jun 27, 2017 at 5:53 pm


Visibility: 10 mi

Pressure: 29.91 "Hg

Humidity: 80%

Dew Point: 69 °F

Location of IrvingLocation

Past Weather in Irving — Graph

°F

Irving Temperature Yesterday

Maximum temperature yesterday: 87 °F (at 4:53 pm)
Minimum temperature yesterday: 73 °F (at 4:53 am)
Average temperature yesterday: 80 °F

High & Low Weather Summary for the Past Weeks

 TemperatureHumidityPressure
High99 °F (Jun 23, 3:53 pm)97% (Jun 24, 7:10 am)30.19 "Hg (Jun 24, 7:10 am)
Low70 °F (Jun 24, 9:34 am)33% (Jun 21, 2:53 pm)29.59 "Hg (Jun 22, 6:53 pm)
Average83 °F68%29.87 "Hg
* Reported Jun 12 5:53 pm — Jun 27 5:53 pm, Irving. Weather by CustomWeather, © 2017

Note: Actual official high and low records may vary slightly from our data, if they occured in-between our weather recording intervals... More about our weather records

Advertising

Irving Weather History for the Previous 24 Hours

Scroll right to see more
 ConditionsComfort  
Time TempWeatherWind HumidityBarometerVisibility
5:53 pm
Tue, Jun 27
76 °FBroken clouds.5 mph80%29.91 "Hg10 mi
5:44 pm76 °FBroken clouds.No wind77%29.93 "Hg10 mi
4:53 pm75 °FThunderstorms. Cloudy.25 mph85%29.92 "Hg4 mi
4:38 pm74 °FStrong thunderstorms. Fog.28 mph91%29.96 "Hg1 mi
4:00 pm91 °FThunderstorms. Scattered clouds.12 mph52%29.93 "Hg10 mi
3:03 pm90 °FPartly sunny.8 mph52%29.95 "Hg10 mi
2:38 pm89 °FBroken clouds.8 mph53%29.96 "Hg10 mi
2:19 pm90 °FThundershowers. Partly sunny.7 mph52%29.96 "Hg10 mi
1:53 pm90 °FPartly sunny.8 mph52%29.94 "Hg10 mi
12:53 pm90 °FScattered clouds.6 mph52%29.96 "Hg10 mi
11:53 am87 °FBroken clouds.6 mph59%29.98 "Hg10 mi
10:53 am86 °FBroken clouds.5 mph61%29.99 "Hg10 mi
9:53 am84 °FScattered clouds.5 mph67%29.99 "Hg10 mi
8:53 am81 °FPassing clouds.No wind77%29.99 "Hg10 mi
7:53 am78 °FPassing clouds.5 mph84%29.99 "Hg10 mi
6:53 am75 °FBroken clouds.3 mph88%29.99 "Hg10 mi
5:53 am75 °FPassing clouds.3 mph88%29.99 "Hg10 mi
4:53 am76 °FPassing clouds.3 mph82%29.98 "Hg10 mi
3:53 am76 °FPassing clouds.5 mph82%29.98 "Hg10 mi
2:53 am77 °FPassing clouds.7 mph77%29.98 "Hg10 mi
1:53 am78 °FPassing clouds.6 mph79%30.00 "Hg10 mi
12:53 am78 °FPartly cloudy.5 mph76%30.01 "Hg10 mi
11:53 pm
Mon, Jun 26
80 °FPassing clouds.5 mph71%30.01 "Hg10 mi
10:53 pm79 °FPassing clouds.6 mph77%30.00 "Hg10 mi
9:53 pm82 °FOvercast.7 mph67%29.99 "Hg10 mi
8:53 pm82 °FOvercast.7 mph67%29.98 "Hg10 mi
7:53 pm84 °FCloudy.6 mph63%29.98 "Hg10 mi
Weather by CustomWeather, © 2017

See weather overviewHow to use our weather pages